When you browse on this site, cookies collect data to enhance your experience and personalize the content and advertising you see.
Visit our Privacy Policy to learn more. By continuing to use the site, you agree to this use of cookies and data.
  • en Suisse
  • Liste des pays
  • À 7 jours
  • Température de l'eau
  • Carte météo
  • Widgets météo
  • user-avatar
    Se connecter

    Météo par heure à Exeter

    Ce jour, 18 Septembre, Mercredi

    Heure Température Précipitation Vent Pression Humidité
    00:00 +10°C° 0 mm 4 m/s 762 mmHg 91%
    01:00 +10°C° 0 mm 3 m/s 762 mmHg 91%
    02:00 +9°C° 0 mm 3 m/s 762 mmHg 92%
    03:00 +9°C° 0 mm 3 m/s 762 mmHg 92%
    04:00 +9°C° 0 mm 3 m/s 763 mmHg 92%
    05:00 +9°C° 0 mm 3 m/s 763 mmHg 92%
    06:00 +9°C° 0 mm 3 m/s 763 mmHg 91%
    07:00 +10°C° 0 mm 3 m/s 763 mmHg 84%
    08:00 +12°C° 0 mm 3 m/s 764 mmHg 78%
    09:00 +13°C° 0 mm 3 m/s 764 mmHg 71%
    10:00 +14°C° 0 mm 3 m/s 764 mmHg 67%
    11:00 +16°C° 0 mm 3 m/s 764 mmHg 62%
    12:00 +17°C° 0 mm 3 m/s 764 mmHg 58%
    13:00 +18°C° 0 mm 3 m/s 764 mmHg 58%
    14:00 +18°C° 0 mm 2 m/s 764 mmHg 58%
    15:00 +18°C° 0 mm 2 m/s 764 mmHg 57%
    16:00 +17°C° 0 mm 2 m/s 764 mmHg 63%
    17:00 +16°C° 0 mm 2 m/s 764 mmHg 69%
    18:00 +14°C° 0 mm 2 m/s 763 mmHg 75%
    19:00 +14°C° 0 mm 2 m/s 764 mmHg 77%
    20:00 +13°C° 0 mm 2 m/s 764 mmHg 79%
    21:00 +12°C° 0 mm 2 m/s 764 mmHg 81%
    22:00 +12°C° 0 mm 2 m/s 764 mmHg 83%
    23:00 +12°C° 0 mm 2 m/s 764 mmHg 84%

    Demain, 19 Septembre, Jeudi

    Heure Température Précipitation Vent Pression Humidité
    00:00 +10°C° 0 mm 2 m/s 764 mmHg 85%
    01:00 +10°C° 0 mm 2 m/s 764 mmHg 86%
    02:00 +10°C° 0 mm 2 m/s 764 mmHg 86%
    03:00 +10°C° 0 mm 2 m/s 764 mmHg 86%
    04:00 +10°C° 0 mm 2 m/s 764 mmHg 87%
    05:00 +9°C° 0 mm 2 m/s 764 mmHg 87%
    06:00 +9°C° 0 mm 2 m/s 764 mmHg 87%
    07:00 +12°C° 0 mm 2 m/s 764 mmHg 82%
    08:00 +14°C° 0 mm 2 m/s 765 mmHg 77%
    09:00 +15°C° 0 mm 2 m/s 765 mmHg 72%
    10:00 +16°C° 0 mm 3 m/s 765 mmHg 69%
    11:00 +17°C° 0 mm 3 m/s 765 mmHg 66%
    12:00 +18°C° 0 mm 3 m/s 765 mmHg 63%
    13:00 +18°C° 0 mm 3 m/s 764 mmHg 64%
    14:00 +18°C° 0 mm 3 m/s 764 mmHg 65%
    15:00 +18°C° 0 mm 3 m/s 764 mmHg 66%
    16:00 +17°C° 0 mm 3 m/s 764 mmHg 73%
    17:00 +16°C° 0 mm 2 m/s 763 mmHg 79%
    18:00 +14°C° 0 mm 1 m/s 763 mmHg 85%
    19:00 +14°C° 0 mm 2 m/s 763 mmHg 87%
    20:00 +13°C° 0 mm 2 m/s 763 mmHg 89%
    21:00 +12°C° 0 mm 2 m/s 763 mmHg 90%
    22:00 +11°C° 0 mm 3 m/s 763 mmHg 91%
    23:00 +11°C° 0 mm 3 m/s 763 mmHg 92%

    Après-demain, 20 Septembre, Vendredi

    Heure Température Précipitation Vent Pression Humidité
    00:00 +11°C° 0 mm 4 m/s 762 mmHg 93%
    01:00 +11°C° 0 mm 4 m/s 762 mmHg 93%
    02:00 +11°C° 0 mm 4 m/s 761 mmHg 93%
    03:00 +11°C° 0 mm 4 m/s 761 mmHg 93%
    04:00 +9°C° 0 mm 5 m/s 761 mmHg 93%
    05:00 +9°C° 0 mm 5 m/s 760 mmHg 92%
    06:00 +9°C° 0 mm 5 m/s 760 mmHg 92%
    07:00 +11°C° 0 mm 6 m/s 759 mmHg 86%
    08:00 +12°C° 0 mm 7 m/s 759 mmHg 79%
    09:00 +13°C° 0 mm 8 m/s 759 mmHg 73%
    10:00 +15°C° 0 mm 8 m/s 758 mmHg 69%
    11:00 +16°C° 0 mm 9 m/s 758 mmHg 64%
    12:00 +17°C° 0 mm 9 m/s 757 mmHg 60%
    13:00 +17°C° 0 mm 9 m/s 756 mmHg 60%
    14:00 +17°C° 0 mm 9 m/s 756 mmHg 59%
    15:00 +16°C° 0 mm 9 m/s 755 mmHg 59%
    16:00 +16°C° 0 mm 9 m/s 754 mmHg 62%
    17:00 +15°C° 0 mm 8 m/s 754 mmHg 64%
    18:00 +14°C° 0 mm 7 m/s 753 mmHg 66%
    19:00 +14°C° 0 mm 7 m/s 753 mmHg 66%
    20:00 +13°C° 0 mm 8 m/s 753 mmHg 66%
    21:00 +15°C° 0 mm 8 m/s 752 mmHg 66%
    22:00 +15°C° 0 mm 7 m/s 752 mmHg 67%
    23:00 +15°C° 0 mm 7 m/s 751 mmHg 67%

    21 Septembre, Samedi

    Heure Température Précipitation Vent Pression Humidité
    00:00 +15°C° 0 mm 7 m/s 751 mmHg 68%
    01:00 +15°C° 0 mm 7 m/s 750 mmHg 70%
    02:00 +15°C° 0 mm 6 m/s 750 mmHg 72%
    03:00 +14°C° 0 mm 6 m/s 749 mmHg 74%
    04:00 +14°C° 0 mm 6 m/s 749 mmHg 76%
    05:00 +14°C° 0 mm 6 m/s 748 mmHg 78%
    06:00 +14°C° 0 mm 6 m/s 747 mmHg 79%
    07:00 +15°C° 0.1 mm 7 m/s 747 mmHg 79%
    08:00 +16°C° 0.1 mm 7 m/s 747 mmHg 78%
    09:00 +17°C° 0.1 mm 8 m/s 747 mmHg 77%
    10:00 +18°C° 0 mm 8 m/s 747 mmHg 77%
    11:00 +18°C° 0 mm 8 m/s 747 mmHg 78%
    12:00 +20°C° 0 mm 7 m/s 746 mmHg 79%
    13:00 +20°C° 0.1 mm 7 m/s 746 mmHg 79%
    14:00 +20°C° 0.1 mm 7 m/s 745 mmHg 79%
    15:00 +20°C° 0.1 mm 7 m/s 745 mmHg 80%
    16:00 +20°C° 0.4 mm 6 m/s 744 mmHg 84%
    17:00 +19°C° 0.4 mm 6 m/s 744 mmHg 88%
    18:00 +17°C° 0.4 mm 5 m/s 744 mmHg 93%
    19:00 +17°C° 0.2 mm 5 m/s 744 mmHg 93%
    20:00 +17°C° 0.2 mm 5 m/s 743 mmHg 93%
    21:00 +17°C° 0.2 mm 5 m/s 743 mmHg 92%
    22:00 +17°C° 0.1 mm 5 m/s 743 mmHg 93%
    23:00 +16°C° 0.1 mm 5 m/s 743 mmHg 93%

    22 Septembre, Dimanche

    Heure Température Précipitation Vent Pression Humidité
    00:00 +16°C° 0.1 mm 5 m/s 743 mmHg 93%
    01:00 +15°C° 0 mm 4 m/s 744 mmHg 93%
    02:00 +14°C° 0 mm 4 m/s 744 mmHg 94%
    03:00 +13°C° 0 mm 3 m/s 744 mmHg 94%
    04:00 +13°C° 0.1 mm 4 m/s 744 mmHg 94%
    05:00 +13°C° 0.1 mm 4 m/s 744 mmHg 94%
    06:00 +13°C° 0.1 mm 5 m/s 744 mmHg 94%
    07:00 +14°C° 0 mm 6 m/s 745 mmHg 88%
    08:00 +15°C° 0 mm 7 m/s 745 mmHg 82%
    09:00 +15°C° 0 mm 7 m/s 745 mmHg 77%
    10:00 +16°C° 0.1 mm 7 m/s 745 mmHg 74%
    11:00 +17°C° 0.1 mm 7 m/s 746 mmHg 72%
    12:00 +17°C° 0.1 mm 7 m/s 746 mmHg 70%
    13:00 +17°C° 0.1 mm 7 m/s 746 mmHg 70%
    14:00 +17°C° 0.1 mm 7 m/s 746 mmHg 69%
    15:00 +17°C° 0.1 mm 7 m/s 747 mmHg 68%
    16:00 +16°C° 0.1 mm 6 m/s 747 mmHg 74%
    17:00 +14°C° 0.1 mm 5 m/s 747 mmHg 80%
    18:00 +13°C° 0.1 mm 4 m/s 748 mmHg 86%
    19:00 +12°C° 0 mm 4 m/s 748 mmHg 88%
    20:00 +11°C° 0 mm 4 m/s 749 mmHg 90%
    21:00 +11°C° 0 mm 3 m/s 749 mmHg 92%
    22:00 +11°C° 0 mm 3 m/s 749 mmHg 91%
    23:00 +10°C° 0 mm 3 m/s 749 mmHg 91%

    23 Septembre, Lundi

    Heure Température Précipitation Vent Pression Humidité
    00:00 +10°C° 0 mm 3 m/s 749 mmHg 91%
    01:00 +11°C° 0 mm 3 m/s 749 mmHg 91%
    02:00 +11°C° 0 mm 3 m/s 749 mmHg 92%
    03:00 +11°C° 0 mm 4 m/s 749 mmHg 92%
    04:00 +12°C° 0.1 mm 4 m/s 749 mmHg 92%
    05:00 +12°C° 0.1 mm 4 m/s 748 mmHg 93%
    06:00 +13°C° 0.1 mm 4 m/s 748 mmHg 93%
    07:00 +13°C° 0.3 mm 5 m/s 748 mmHg 94%
    08:00 +14°C° 0.3 mm 6 m/s 747 mmHg 94%
    09:00 +14°C° 0.3 mm 7 m/s 747 mmHg 94%
    10:00 +15°C° 0.3 mm 7 m/s 747 mmHg 95%
    11:00 +15°C° 0.3 mm 6 m/s 747 mmHg 95%
    12:00 +16°C° 0.3 mm 5 m/s 746 mmHg 96%
    13:00 +17°C° 0.2 mm 5 m/s 747 mmHg 95%
    14:00 +17°C° 0.2 mm 6 m/s 747 mmHg 94%
    15:00 +19°C° 0.2 mm 6 m/s 747 mmHg 93%
    16:00 +17°C° 0.2 mm 6 m/s 747 mmHg 93%
    17:00 +17°C° 0.2 mm 6 m/s 747 mmHg 93%
    18:00 +17°C° 0.2 mm 6 m/s 748 mmHg 94%
    19:00 +17°C° 0 mm 6 m/s 748 mmHg 94%
    20:00 +16°C° 0 mm 5 m/s 748 mmHg 95%
    21:00 +16°C° 0 mm 5 m/s 749 mmHg 96%
    22:00 +17°C° 0 mm 4 m/s 749 mmHg 96%
    23:00 +17°C° 0 mm 4 m/s 749 mmHg 97%
    Voir plus